National Weather Service Raw Text Product

Displaying AFOS PIL: RWRMI Received: 2018-11-16 11:00 UTC


626 
ASUS43 KDTX 161101
RWRMI 
MICHIGAN HOURLY REGIONAL WEATHER ROUNDUP
NATIONAL WEATHER SERVICE DETROIT/PONTIAC MI
600 AM EST FRI NOV 16 2018

NOTE: "FAIR" INDICATES FEW OR NO CLOUDS BELOW 12,000 FEET WITH NO
SIGNIFICANT WEATHER AND/OR OBSTRUCTION TO VISIBILITY.

MIZ047>049-052>055-059>063-066>070-074>076-081>083-161200-
SOUTHEAST LOWER MICHIGAN
  
CITY           SKY/WX    TMP DP  RH WIND       PRES   REMARKS
ADRIAN         CLOUDY    30  27  88 W13       29.84S WCI  20          
ALMA           LGT SNOW  33  32  98 SW8       29.74S WCI  25          
ANN ARBOR      CLOUDY    31  29  92 SW13      29.80S WCI  21          
BAD AXE        LGT SNOW  32  31  97 SW8       29.71F WCI  25          
CARO           LGT SNOW  32  32 100 SW7       29.73S WCI  26          
DETROIT CITY   CLOUDY    33  29  85 SW14G23   29.79F WCI  23          
DETROIT        CLOUDY    33  28  81 SW17      29.81S HAZE    WCI  22  
FLINT          CLOUDY    32  30  92 SW12      29.76F FOG     WCI  23  
GROSSE ILE     CLOUDY    32  31  94 SW9G17    29.81S WCI  25          
HILLSDALE      CLOUDY    30  27  86 S8        29.78F WCI  23          
HOWELL         CLOUDY    32  30  94 SW7       29.77F FOG     WCI  25  

CITY           SKY/WX    TMP DP  RH WIND       PRES   REMARKS
JACKSON        CLOUDY    29  27  92 SW13G23   29.79S WCI  19          
LAMBERTVILLE   CLOUDY    33  30  89 SW8G17    29.84S FOG     WCI  26  
LANSING        LGT SNOW  30  28  92 SW17      29.78R FOG     WCI  18  
LAPEER         CLOUDY    32  31  96 SW10      29.75S FOG     WCI  24  
MASON          CLOUDY    32  29  88 SW7       29.77F WCI  26          
MONROE         CLOUDY    32  31  96 SW14G21   29.82S WCI  22          
MT. CLEMENS    CLOUDY   N/A N/A N/A SW14G21   29.78S                  
PONTIAC        FRZ DRZL  31  30  96 SW9G20    29.75F FOG     WCI  23  
PORT HOPE        N/A     32  31  96 SW8       29.70S WCI  25          
TRI CITIES     CLOUDY    33  32  96 SW14      29.74S FOG     WCI  23  
MIDLAND        CLOUDY    33  33  98 SW5       29.72S FOG     WCI  29  
TROY           CLOUDY    33  30  90 SW10      29.80S WCI  24          
SAGINAW HB     LGT SNOW  32  32 100 SW8       29.73S WCI  25          
$$
MIZ043>046-050>051-056>058-064>065-071>073-077>080-161200-
SOUTHWEST LOWER MICHIGAN
  
CITY           SKY/WX    TMP DP  RH WIND       PRES   REMARKS
BATTLE CREEK   CLOUDY    28  25  88 S12G20    29.78F WCI  18          
BENTON HARBOR  CLOUDY    30  25  81 S10G18    29.79S WCI  21          
BIG RAPIDS     LGT SNOW  33  32  97 SW7       29.70S WCI  26          
COLDWATER      FAIR      29  25  86 SW7       29.80F WCI  21          
FREMONT        LGT SNOW  33  32  95 S3        29.71S                  
HOLLAND        LGT SNOW  31  27  85 S12       29.77R FOG     WCI  22  
GRAND RAPIDS   CLOUDY    31  27  85 S15       29.76R WCI  20          
IONIA          CLOUDY    31  28  89 SW13      29.75S WCI  21          
KALAMAZOO      CLOUDY    29  25  85 S13       29.79F WCI  19          
LUDINGTON      LGT RAIN  36  32  85 W7        29.69S WCI  30          
MARSHALL       CLOUDY    31  28  91 S8        29.79S WCI  23          
MOUNT PLEASANT CLOUDY    33  32  94 SW3       29.72R FOG              
SOUTH HAVEN    CLOUDY    31  26  81 S8        29.78S WCI  23          
$$
MIZ016>042-161200-
NORTHERN LOWER MICHIGAN
  
CITY           SKY/WX    TMP DP  RH WIND       PRES   REMARKS
ALPENA         LGT SNOW  31  31 100 SW5       29.68F FOG     WCI  26  
BEAVER ISLAND  LGT SNOW  33  32  95 SW15G23   29.66R WCI  23          
BELLAIRE       LGT SNOW  33  31  94 CALM      29.69R                  
CADILLAC       LGT SNOW  31  28  89 SW5       29.66S VSB 1   WCI  26  
CHARLEVOIX     LGT SNOW  33  32  95 S6        29.69S WCI  28          
FRANKFORT      CLOUDY    35  30  83 W6        29.68S WCI  30          
GAYLORD        CLOUDY    29  29 100 SW8       29.64F FOG     WCI  21  
HARBOR SPRINGS CLOUDY    32  32  99 CALM      29.66F                  
HOUGHTON LAKE  CLOUDY    31  29  92 SW7       29.68F WCI  24          
MANISTEE       MIX PCPN  32  31  96 CALM      29.69S FOG              
OSCODA         LGT SNOW  31  31 100 SW8       29.70S WCI  24          
PELLSTON       CLOUDY    31  30  96 SE5       29.66S WCI  26          
ROGERS CITY    LGT SNOW  31  31  97 CALM      29.68S                  
TRAVERSE CITY  LGT SNOW  33  31  92 CALM      29.68R VSB 3/4          
$$
MIZ007>008-015-161200-
EASTERN UPPER MICHIGAN
  
CITY           SKY/WX    TMP DP  RH WIND       PRES   REMARKS
KINROSS        CLOUDY    30  29  96 SE5       29.65F WCI  25          
MACKINAC ISLAN LGT SNOW  32  31  97 S5        29.65S WCI  28          
NEWBERRY       CLOUDY    31  31  97 CALM      29.62F                  
S. S. MARIE    CLOUDY    33  31  92 CALM      29.64F                  
MUNISING         N/A     34  28  79 NW7       29.64R WCI  28          
$$
MIZ004>006-011>014-085-161200-
CENTRAL UPPER MICHIGAN
  
CITY           SKY/WX    TMP DP  RH WIND       PRES   REMARKS
MANISTIQUE     CLOUDY    33  29  84 W5        29.64R WCI  29          
ESCANABA       CLOUDY    31  27  85 W5        29.67R WCI  26          
MENOMINEE      MIX PCPN  32  26  78 VRB5      29.70R WCI  27          
$$
MIZ001>003-009>011-084-161200-
WESTERN UPPER MICHIGAN
  
CITY           SKY/WX    TMP DP  RH WIND       PRES   REMARKS
IRON MOUNTAIN  MIX PCPN  32  26  78 NW6       29.66R WCI  26          
HOUGHTON       CLOUDY    35  29  78 NW14      29.64R WCI  26          
COPPER HARBOR    N/A     36  33  89 N20       29.63R WCI  25          
IRONWOOD       CLOUDY    34  29  82 NW10G18   29.74R WCI  26          
$$

ABBREVIATIONS USED IN REMARKS
   TC - TEMPERATURE IN CELSIUS
  WCI - WIND CHILL INDEX
   HX - HEAT INDEX
  VSB - VISIBILITY